[[{"header":{"parameterUnit":"m.s-1","parameterCategory":1,"la1":30.2991,"la2":30.254,"lo1":-89.0895,"lo2":-89.0444,"dy":0.0017,"dx":0.0017,"nx":28,"ny":28,"refTime":"2024-04-25T21:00:00:Z","depth":0,"parameterNumber":2,"parameterNumberName":"U-component_of_WINDS"},"data":[0,0,0,0,0,0,0,0,0,0,0,0,0,0,0,0,0,0,0,0,0,0,0,0,0,0,0,0,0,0,0,0,0,0,0,0,0,0,0,0,0,0,0,0,0,0,0,0,0,0,0,0,0,0,0,0,0,0,-6.6522,-6.6523,0,-6.6655,-6.6657,-6.6658,-6.6634,-6.6631,-6.6629,-6.6627,-6.6757,-6.6763,-6.6768,0,0,0,0,0,0,0,0,0,0,0,0,0,-6.624,-6.6245,-6.6522,-6.6523,-6.6525,-6.6655,-6.6657,-6.6659,-6.6634,-6.6631,-6.6628,-6.6626,-6.6755,-6.6762,-6.6769,0,0,0,0,0,0,0,0,0,0,0,0,0,-6.6367,-6.6247,-6.6521,-6.6529,-6.6531,-6.6655,-6.6657,-6.6659,-6.6635,-6.6631,-6.6628,-6.6624,-6.6753,-6.6761,-6.677,-6.6893,0,0,-6.6796,-6.68,0,0,0,0,0,0,0,0,-6.636,-6.6377,-6.6526,-6.6528,-6.6531,-6.6624,-6.6605,-6.6737,-6.6636,-6.6595,-6.6627,-6.6623,-6.6716,-6.6727,-6.676,-6.6899,-6.6905,-6.6797,-6.6802,-6.6805,-6.6808,0,0,0,0,0,0,0,-6.6351,-6.6371,-6.6574,-6.6528,-6.6531,-6.6523,-6.6537,-6.663,-6.6673,-6.6598,-6.6597,-6.6613,-6.6716,-6.6751,-6.6762,-6.6907,-6.6796,-6.6804,-6.6809,-6.6813,-6.7154,-6.7158,0,0,0,0,0,0,-6.6341,-6.6364,-6.657,-6.6578,-6.6435,-6.6531,-6.6547,-6.6598,-6.6672,-6.668,-6.6616,-6.6612,-6.6739,-6.6752,-6.6767,-6.6915,-6.6805,-6.6813,-6.6818,-6.715,-6.7155,-6.7159,0,0,0,0,0,0,-6.6335,-6.6359,-6.6565,-6.6471,-6.6497,-6.654,-6.6597,-6.6602,-6.6637,-6.6686,-6.6693,-6.6645,-6.6736,-6.6755,-6.6862,-6.6919,-6.6817,-6.6825,-6.7145,-6.7151,-6.7157,-6.7213,0,0,0,0,0,0,-6.6327,-6.6357,-6.6406,-6.6472,-6.6502,-6.666,-6.6601,-6.6607,-6.6653,-6.6648,-6.6714,-6.6722,-6.6735,-6.685,-6.6871,-6.6929,-6.6832,-6.714,-6.7148,-6.7155,-6.7206,-6.722,-6.7232,0,0,0,0,0,-6.6317,-6.6415,-6.6408,-6.6433,-6.6563,-6.6663,-6.6679,-6.6694,-6.6658,-6.6706,-6.6737,-6.672,-6.6911,-6.6861,-6.6884,-6.6946,-6.7137,-6.7146,-6.7154,-6.7201,-6.7218,-6.7232,0,0,0,0,0,0,-6.6351,-6.6424,-6.6417,-6.654,-6.6596,-6.6659,-6.672,-6.6712,-6.6777,-6.677,-6.6784,-6.6799,-6.6908,-6.6938,-6.6882,-6.7069,-6.7018,-6.7032,-6.7045,-6.7062,-6.7075,-6.7063,-6.6839,0,0,0,0,0,-6.6374,-6.6451,-6.6509,-6.6612,-6.6641,-6.6676,-6.6719,-6.6727,-6.6784,-6.6806,-6.6845,-6.69,-6.6972,-6.7019,-6.7088,-6.7212,-6.7225,-6.7266,-6.7279,-6.7289,-6.73,-6.7366,-6.7385,-6.7188,-6.7188,-6.7188,0,0,-6.642,-6.6469,-6.6516,-6.662,-6.6664,-6.6741,-6.6695,-6.6779,-6.6835,-6.6818,-6.6922,-6.6953,-6.7015,-6.7131,-6.7184,-6.7159,-6.7358,-6.7301,-6.7309,-6.7314,-6.7377,-6.7396,-6.7413,-6.7194,-6.7193,-6.7192,0,0,-6.6543,-6.6589,-6.6679,-6.6725,-6.6793,-6.6816,-6.6838,-6.6903,-6.6923,-6.7028,-6.7017,-6.7084,-6.7208,-6.7253,-6.7291,-6.7433,-6.7419,-6.7456,-6.7522,-6.7586,-6.7602,-6.7615,-6.7664,-6.7681,-6.7467,-6.7467,-6.7467,0,-6.6591,-6.6709,-6.6726,-6.6812,-6.6857,-6.6848,-6.6938,-6.6981,-6.7068,-6.7098,-6.7071,-6.7227,-6.7268,-6.7393,-6.7428,-6.7461,-6.7484,-6.7446,-6.7599,-6.7613,-6.7626,-6.7672,-6.769,-6.7471,-6.747,-6.747,-6.747,0,-6.6763,-6.6845,-6.691,-6.6996,-6.7049,-6.7136,-6.7165,-6.7217,-6.722,-6.7245,-6.7352,-6.7401,-6.748,-6.7511,-6.7514,-6.7637,-6.7619,-6.7596,-6.7544,-6.7648,-6.7691,-6.7709,-6.7476,-6.7475,-6.7474,-6.7473,0,0,-6.6909,-6.7005,-6.7028,-6.7067,-6.7143,-6.7205,-6.7292,-6.7371,-6.7414,-6.7474,-6.7546,-6.7652,-6.7631,-6.7675,-6.7683,-6.774,-6.7847,-6.7709,-6.771,-6.7731,-6.7984,-6.7999,-6.802,-6.784,-6.7843,-6.7846,-6.7978,0,-6.7037,-6.7192,-6.7211,-6.7348,-6.7423,-6.7417,-6.7492,-6.7545,-6.7572,-6.7638,-6.7667,-6.7741,-6.7708,-6.7735,-6.7791,-6.7822,-6.7898,-6.7813,-6.7903,-6.7907,-6.7885,-6.8043,-6.806,-6.8181,-6.7995,-6.7998,-6.8,0,-6.7207,-6.7274,-6.7419,-6.7484,-6.7516,-6.7584,-6.7658,-6.7722,-6.7782,-6.7798,-6.7848,-6.7849,-6.7937,-6.7885,-6.8004,-6.7947,-6.7985,-6.8006,-6.8011,-6.8018,-6.7957,-6.8051,-6.8221,-6.8238,-6.8028,-6.8025,-6.8023,0,-6.7296,-6.7423,-6.7526,-6.756,-6.7639,-6.7686,-6.7721,-6.7778,-6.7825,-6.7889,-6.7919,-6.7992,-6.8032,-6.8088,-6.8108,-6.8068,-6.8226,-6.8176,-6.8239,-6.8238,-6.827,-6.8267,-6.8445,-6.8299,-6.8299,-6.8299,-6.8298,0,-6.7435,-6.7524,-6.7567,-6.763,-6.7728,-6.7749,-6.7845,-6.7878,-6.7929,-6.7997,-6.7996,-6.8059,-6.8084,-6.8151,-6.8167,-6.8263,-6.8281,-6.8294,-6.8297,-6.8293,-6.8291,-6.8315,-6.8306,-6.8304,-6.8303,-6.8302,-6.8301,0,-6.755,-6.7583,-6.7694,-6.7761,-6.778,-6.785,-6.7906,-6.7966,-6.7993,-6.8079,-6.81,-6.8141,-6.822,-6.8247,-6.8341,-6.8353,-6.8463,-6.846,-6.8443,-6.8443,-6.8504,-6.8497,-6.8702,-6.8729,-6.8568,-6.857,-6.8571,0,-6.7635,-6.7704,-6.7779,-6.7825,-6.7862,-6.7937,-6.7985,-6.8009,-6.8058,-6.8133,-6.8183,-6.8262,-6.8326,-6.8452,-6.8489,-6.8561,-6.8558,-6.8625,-6.8568,-6.8562,-6.8556,-6.855,-6.8556,-6.8634,-6.8636,-6.8637,-6.8639,0,-6.7783,-6.7796,-6.7867,-6.7943,-6.8001,-6.8062,-6.8121,-6.8158,-6.819,-6.8246,-6.8328,-6.8378,-6.8476,-6.8553,-6.8627,-6.8661,-6.8654,-6.8657,-6.8675,-6.8669,-6.8656,-6.8662,-6.8469,-6.8651,-6.865,-6.8649,-6.8648,-6.8648,-6.7884,-6.7944,-6.8006,-6.8085,-6.8132,-6.8187,-6.8247,-6.8282,-6.8351,-6.8434,-6.8444,-6.8531,-6.8589,-6.8689,-6.8726,-6.8794,-6.8774,-6.8801,-6.8807,-6.8813,-6.8816,-6.8648,-6.8807,-6.8807,-6.8807,-6.8807,-6.8806,0,-6.8029,-6.807,-6.8142,-6.8225,-6.8287,-6.8279,-6.8344,-6.8395,-6.8472,-6.8528,-6.8592,-6.8685,-6.8761,-6.8805,-6.888,-6.8925,-6.8924,-6.8944,-6.8939,-6.8946,-6.883,-6.8806,-6.8943,-6.8943,-6.8943,-6.8943,-6.8943,-6.8943,-6.8112,-6.8213,-6.8234,-6.8357,-6.8397,-6.8484,-6.8521,-6.8571,-6.8616,-6.8721,-6.8785,-6.8814,-6.8865,-6.8944,-6.9012,-6.9023,-6.9049,-6.907,-6.9079,-6.8969,-6.8955,-6.8941,-6.8918,-6.9077,-6.9077,-6.9189,-6.919,-6.9191]},{"header":{"parameterUnit":"m.s-1","parameterCategory":1,"la1":30.2991,"la2":30.254,"lo1":-89.0895,"lo2":-89.0444,"dy":0.0017,"dx":0.0017,"nx":28,"ny":28,"refTime":"2024-04-25T21:00:00:Z","depth":0,"parameterNumber":3,"parameterNumberName":"V-component_of_WINDS"},"data":[0,0,0,0,0,0,0,0,0,0,0,0,0,0,0,0,0,0,0,0,0,0,0,0,0,0,0,0,0,0,0,0,0,0,0,0,0,0,0,0,0,0,0,0,0,0,0,0,0,0,0,0,0,0,0,0,0,0,3.9996,3.9996,0,4.0043,4.0043,4.0044,4.0064,4.0064,4.0064,4.0064,4.0107,4.0108,4.011,0,0,0,0,0,0,0,0,0,0,0,0,0,3.9919,3.992,3.9995,3.9996,3.9997,4.0042,4.0043,4.0044,4.0064,4.0064,4.0064,4.0064,4.0107,4.0108,4.011,0,0,0,0,0,0,0,0,0,0,0,0,0,3.9958,3.9921,3.9995,4.0012,4.0014,4.0042,4.0043,4.0044,4.0064,4.0064,4.0064,4.0064,4.0106,4.0108,4.011,4.0123,0,0,4.0116,4.0116,0,0,0,0,0,0,0,0,3.9955,3.996,4.0009,4.0011,4.0014,4.0047,4.0032,4.007,4.0064,4.0045,4.0064,4.0064,4.0087,4.0091,4.0099,4.0125,4.0127,4.0116,4.0117,4.0118,4.0118,0,0,0,0,0,0,0,3.9953,3.9959,4.0014,4.001,4.0013,4.0016,4.0022,4.0039,4.0066,4.0047,4.0048,4.0054,4.0088,4.0098,4.0101,4.0128,4.0116,4.0117,4.0118,4.0119,4.0167,4.0167,0,0,0,0,0,0,3.9948,3.9956,4.0012,4.0015,3.9984,4.0018,4.0024,4.0037,4.0066,4.007,4.0054,4.0055,4.0095,4.0098,4.0102,4.012,4.0118,4.0119,4.012,4.0167,4.0167,4.0167,0,0,0,0,0,0,3.9946,3.9953,4.0011,3.9986,3.9994,4.0019,4.0033,4.0038,4.0047,4.0071,4.0076,4.0059,4.0095,4.01,4.0118,4.0122,4.012,4.0122,4.0167,4.0167,4.0167,4.0156,0,0,0,0,0,0,3.9944,3.9952,3.9958,3.9986,3.9995,4.0027,4.0034,4.0039,4.0051,4.0052,4.0077,4.0081,4.0095,4.0115,4.012,4.0125,4.0123,4.0167,4.0167,4.0167,4.0156,4.0156,4.0156,0,0,0,0,0,3.9941,3.9952,3.9958,3.9965,4.0004,4.0027,4.0032,4.0049,4.0051,4.0057,4.0072,4.008,4.0121,4.0117,4.0123,4.0128,4.0166,4.0167,4.0167,4.0156,4.0156,4.0156,0,0,0,0,0,0,3.9922,3.9956,3.9963,3.9984,4.0003,4.0031,4.0039,4.0048,4.0066,4.0066,4.0085,4.009,4.0107,4.0119,4.0115,4.0142,4.0144,4.0146,4.0134,4.0134,4.0134,4.0131,4.0125,0,0,0,0,0,3.992,3.9938,3.9966,3.9981,3.9991,4.0013,4.0024,4.0036,4.0055,4.0063,4.008,4.0097,4.0114,4.0124,4.0141,4.0158,4.0164,4.0164,4.0164,4.0163,4.0165,4.0175,4.0176,4.0169,4.0169,4.0169,0,0,3.9916,3.9937,3.9947,3.9978,3.9994,4.0011,4.0019,4.0037,4.0049,4.0065,4.0084,4.0097,4.0118,4.0136,4.0145,4.0146,4.0168,4.0164,4.0164,4.0165,4.0176,4.0176,4.0177,4.0169,4.0169,4.0169,0,0,3.9918,3.9936,3.9951,3.9968,3.9992,4.0007,4.0011,4.0038,4.0048,4.0068,4.008,4.0094,4.0123,4.0137,4.0148,4.0157,4.0165,4.0162,4.016,4.017,4.0171,4.0172,4.0175,4.0176,4.0163,4.0163,4.0163,0,3.991,3.9938,3.9957,3.9975,3.9988,4.0005,4.002,4.0034,4.0062,4.007,4.0072,4.0109,4.0124,4.0146,4.0149,4.0157,4.0161,4.0159,4.017,4.017,4.0171,4.0175,4.0176,4.0162,4.0162,4.0162,4.0162,0,3.9927,3.9946,3.9955,3.9984,3.9998,4.0014,4.0035,4.0047,4.0057,4.0072,4.0092,4.0111,4.0132,4.0138,4.0147,4.0161,4.0162,4.0166,4.0169,4.0171,4.0175,4.0176,4.0161,4.0162,4.0162,4.0162,0,0,3.9918,3.9959,3.9962,3.9976,4.0005,4.0019,4.0035,4.0058,4.0068,4.0086,4.0101,4.0125,4.013,4.0142,4.0153,4.0162,4.0168,4.0165,4.0166,4.0166,4.0186,4.0183,4.0184,4.0174,4.0174,4.0174,4.0184,0,3.9924,3.9957,3.9975,4.0,4.0017,4.0034,4.0048,4.0067,4.0081,4.0097,4.0111,4.0129,4.0133,4.0141,4.015,4.0166,4.0173,4.0165,4.0186,4.0187,4.0182,4.0186,4.0183,4.0192,4.0186,4.0186,4.0186,0,3.9936,3.9958,3.9984,4.0012,4.002,4.0033,4.0056,4.0071,4.0092,4.0102,4.0117,4.0128,4.0145,4.0146,4.017,4.0164,4.0174,4.0183,4.0183,4.0187,4.0187,4.019,4.0195,4.0196,4.0189,4.0188,4.0188,0,3.9928,3.9963,3.9984,3.9995,4.0028,4.0037,4.005,4.0072,4.0085,4.0104,4.0112,4.0132,4.0143,4.0158,4.0174,4.0173,4.0196,4.0198,4.0204,4.0204,4.0209,4.0208,4.0216,4.0214,4.0214,4.0214,4.0214,0,3.9934,3.995,3.9981,3.9994,4.0012,4.0032,4.0049,4.0064,4.0083,4.0098,4.0112,4.0126,4.0146,4.0162,4.0175,4.0193,4.0197,4.0205,4.0208,4.0204,4.0203,4.0211,4.0211,4.0214,4.0214,4.0214,4.0214,0,3.9928,3.995,3.9974,4.0004,4.0011,4.0023,4.0048,4.0061,4.0076,4.0095,4.01,4.0123,4.0143,4.0161,4.0186,4.0194,4.0213,4.0216,4.0206,4.0208,4.0214,4.0213,4.0227,4.023,4.0225,4.0225,4.0225,0,3.9931,3.9944,3.9976,3.9988,4.0003,4.0022,4.0035,4.0056,4.0069,4.0095,4.0104,4.0125,4.0143,4.0173,4.0191,4.0211,4.0215,4.0219,4.0218,4.0214,4.0216,4.0216,4.0217,4.0219,4.0219,4.0219,4.0219,0,3.9934,3.9944,3.9964,3.9989,4.0005,4.0024,4.0044,4.0053,4.0076,4.009,4.0112,4.0126,4.0153,4.0173,4.0195,4.0208,4.0217,4.0219,4.0221,4.0218,4.0212,4.0216,4.0207,4.0218,4.0218,4.0218,4.0218,4.0218,3.9933,3.9946,3.9971,3.9993,4.001,4.0029,4.0043,4.006,4.0079,4.0104,4.0114,4.0136,4.0157,4.0187,4.02,4.0216,4.0218,4.0221,4.0222,4.0223,4.0223,4.0209,4.022,4.022,4.022,4.022,4.022,0,3.9937,3.9955,3.9975,4.0003,4.0021,4.003,4.0052,4.0065,4.0085,4.0105,4.0123,4.0147,4.0167,4.0188,4.0209,4.0218,4.0223,4.0223,4.0223,4.0225,4.022,4.0216,4.0219,4.0219,4.0219,4.0219,4.0219,4.0219,3.9942,3.9965,3.9978,4.0009,4.0025,4.0049,4.0061,4.0077,4.0093,4.0121,4.0139,4.0152,4.0172,4.0195,4.0213,4.0219,4.0226,4.0225,4.0231,4.0226,4.0226,4.0226,4.0222,4.0226,4.0226,4.0236,4.0236,4.0236]}]]